This is the latest recevied weather packets stored in our database for station/object KB7STN. If no packets are shown the sender has not sent any weather packets the latest 1 day(s).
| Time | Temp. | Humidity | Pressure | Rain* | Wind** | Luminosity | Snow |
|---|---|---|---|---|---|---|---|
| 1777998737 | 8.33° C | 74% | 1000.8 hPa | 0 mm | 1.34 m/s, 182° | - | - |
| 1777998437 | 8.33° C | 74% | 1000.8 hPa | 0 mm | 1.34 m/s, 179° | - | - |
| 1777998137 | 8.33° C | 73% | 1000.9 hPa | 0 mm | 1.79 m/s, 173° | - | - |
| 1777997837 | 8.33° C | 72% | 1000.9 hPa | 0 mm | 1.79 m/s, 177° | - | - |
| 1777997537 | 8.89° C | 71% | 1000.9 hPa | 0 mm | 1.79 m/s, 161° | - | - |
| 1777997237 | 8.89° C | 70% | 1000.9 hPa | 0 mm | 1.79 m/s, 198° | - | - |
| 1777996937 | 8.89° C | 70% | 1000.9 hPa | 0 mm | 1.79 m/s, 163° | - | - |
| 1777996637 | 8.89° C | 69% | 1000.7 hPa | 0 mm | 1.79 m/s, 160° | - | - |
| 1777996337 | 8.89° C | 67% | 1000.5 hPa | 0 mm | 1.34 m/s, 184° | - | - |
| 1777996037 | 9.44° C | 67% | 1000.4 hPa | 0 mm | 0.89 m/s, 183° | - | - |
| 1777995737 | 8.89° C | 68% | 1000.2 hPa | 0 mm | 0.89 m/s, 197° | - | - |
| 1777995437 | 8.89° C | 68% | 1000.2 hPa | 0 mm | 1.34 m/s, 199° | - | - |
| 1777995188 | 8.89° C | 68% | 1000.2 hPa | 0 mm | 1.79 m/s, 221° | - | - |
| 1777994837 | 8.89° C | 67% | 1000.2 hPa | 0 mm | 1.79 m/s, 179° | - | - |
| 1777994537 | 9.44° C | 66% | 1000.2 hPa | 0 mm | 1.79 m/s, 185° | - | - |
| 1777994237 | 9.44° C | 66% | 1000.1 hPa | 0 mm | 1.34 m/s, 177° | - | - |
| 1777993937 | 9.44° C | 66% | 1000.1 hPa | 0 mm | 1.34 m/s, 206° | - | - |
| 1777993637 | 9.44° C | 65% | 1000 hPa | 0 mm | 1.34 m/s, 209° | - | - |
| 1777993337 | 9.44° C | 64% | 1000.1 hPa | 0 mm | 0.89 m/s, 202° | - | - |
| 1777993046 | 9.44° C | 64% | 1000 hPa | 0 mm | 1.34 m/s, 196° | - | - |
| 1777992737 | 9.44° C | 63% | 999.8 hPa | 0 mm | 1.79 m/s, 197° | - | - |
| 1777992437 | 9.44° C | 63% | 999.9 hPa | 0 mm | 1.79 m/s, 199° | - | - |
| 1777992137 | 9.44° C | 62% | 999.8 hPa | 0 mm | 1.79 m/s, 196° | - | - |
| 1777991837 | 9.44° C | 62% | 999.7 hPa | 0 mm | 1.79 m/s, 204° | - | - |
| 1777991537 | 10° C | 63% | 999.7 hPa | 0 mm | 1.79 m/s, 212° | - | - |
* Rain latest hour (hover to see other rain measurements)
** Current wind speed in m/s (hover to see current wind gust speed)